TimeAKDT,TemperatureF,Dew PointF,Humidity,Sea Level PressureIn,VisibilityMPH,Wind Direction,Wind SpeedMPH,Gust SpeedMPH,PrecipitationIn,Events,Conditions,WindDirDegrees,DateUTC
12:53 AM,8.1,5.0,87,30.73,10.0,SW,4.6,-,N/A,,Clear,220,2012-10-25 08:53:00
1:53 AM,7.0,3.9,87,30.74,10.0,SW,4.6,-,N/A,,Clear,220,2012-10-25 09:53:00
2:53 AM,5.0,1.9,87,30.74,10.0,Calm,Calm,-,N/A,,Clear,0,2012-10-25 10:53:00
3:53 AM,3.0,-0.0,87,30.73,10.0,SW,3.5,-,N/A,,Clear,230,2012-10-25 11:53:00
4:53 AM,3.9,1.0,88,30.72,10.0,Calm,Calm,-,N/A,,Clear,0,2012-10-25 12:53:00
6:53 AM,3.9,1.0,88,30.72,10.0,Calm,Calm,-,N/A,,Clear,0,2012-10-25 14:53:00
7:53 AM,6.1,3.0,87,30.71,10.0,Calm,Calm,-,N/A,,Clear,0,2012-10-25 15:53:00
8:53 AM,6.1,3.0,87,30.71,10.0,Calm,Calm,-,N/A,,Clear,0,2012-10-25 16:53:00
9:53 AM,8.1,5.0,87,30.71,10.0,Calm,Calm,-,N/A,,Clear,0,2012-10-25 17:53:00
10:53 AM,9.0,6.1,88,30.71,10.0,Calm,Calm,-,N/A,,Clear,0,2012-10-25 18:53:00
11:53 AM,14.0,10.9,88,30.71,10.0,Calm,Calm,-,N/A,,Clear,0,2012-10-25 19:53:00
12:53 PM,16.0,12.9,88,30.70,10.0,Calm,Calm,-,N/A,,Clear,0,2012-10-25 20:53:00
1:53 PM,18.0,14.0,84,30.69,10.0,Calm,Calm,-,N/A,,Clear,0,2012-10-25 21:53:00
2:53 PM,19.9,15.1,81,30.68,10.0,Calm,Calm,-,N/A,,Clear,0,2012-10-25 22:53:00
3:53 PM,21.0,14.0,74,30.67,10.0,Calm,Calm,-,N/A,,Clear,0,2012-10-25 23:53:00
4:53 PM,21.9,15.1,75,30.65,10.0,Calm,Calm,-,N/A,,Mostly Cloudy,0,2012-10-26 00:53:00
5:53 PM,23.0,15.1,72,30.65,10.0,Calm,Calm,-,N/A,,Overcast,0,2012-10-26 01:53:00
6:53 PM,21.9,15.1,75,30.64,10.0,Calm,Calm,-,N/A,,Mostly Cloudy,0,2012-10-26 02:53:00
7:53 PM,21.0,15.1,78,30.63,10.0,Calm,Calm,-,N/A,,Overcast,0,2012-10-26 03:53:00
8:53 PM,21.0,16.0,81,30.63,10.0,Calm,Calm,-,N/A,,Overcast,0,2012-10-26 04:53:00
9:53 PM,21.9,17.1,82,30.61,10.0,Calm,Calm,-,N/A,,Overcast,0,2012-10-26 05:53:00
10:53 PM,23.0,15.1,72,30.59,10.0,Calm,Calm,-,N/A,,Overcast,0,2012-10-26 06:53:00
11:53 PM,23.0,17.1,78,30.61,10.0,Calm,Calm,-,N/A,,Overcast,0,2012-10-26 07:53:00